Theta_e
345 345 347 344 341 346 350 352 355 354 348 345 342 338 335 333 334 337 335 329 326 326 326 324 323 324 322 323 323 322 320 318 315 318 318 322 323 321 320 321 319 320 317
342 343 343 343 342 343 344 345 347 348 345 344 339 335 332 331 333 330 327 326 324 323 322 322 321 321 324 324 322 323 321 322 318 316 319 316 321 324 322 323 317 316 315
342 341 339 340 337 337 342 347 346 343 343 339 336 332 330 329 328 328 327 324 322 322 322 321 322 323 322 322 322 322 320 320 319 316 312 315 316 315 315 321 321 323 315
342 337 339 339 338 339 343 340 341 343 337 337 335 331 328 329 328 325 324 323 322 320 321 321 321 322 322 321 321 322 321 320 319 315 312 313 311 315 313 311 312 315 313
339 338 338 338 340 339 337 339 340 338 334 333 332 330 329 328 325 326 324 321 320 320 320 320 319 314 310 310 320 321 322 318 313 312 310 311 308 307 309 311 311 312 315
340 338 338 337 336 335 333 335 333 334 333 327 329 326 326 324 308 312 321 321 320 319 317 313 312 310 308 307 308 305 309 315 315 313 309 307 309 307 310 311 310 309 306
337 336 335 335 333 331 333 331 332 330 328 326 329 326 326 322 307 307 311 322 321 319 318 317 314 312 314 310 305 306 306 307 309 315 309 306 306 308 312 312 314 312 309
335 331 332 330 329 329 329 328 330 331 328 329 329 327 327 318 305 304 307 320 319 319 318 317 317 316 313 315 315 313 312 314 312 309 309 308 308 308 310 314 317 318 313
333 328 329 330 327 324 324 326 327 328 329 326 326 327 325 315 303 302 311 319 317 316 316 316 315 313 299 301 314 312 310 307 301 302 302 301 300 300 302 309 305 305 303
332 330 328 326 325 323 323 324 325 328 325 322 321 326 314 315 300 301 311 315 314 313 314 310 299 306 298 299 314 313 311 311 312 311 311 307 304 306 304 315 308 303 303
334 328 326 324 323 323 324 323 324 321 320 319 320 317 318 314 307 299 301 316 314 311 308 306 304 297 297 297 302 315 309 308 307 310 308 307 309 310 308 310 313 306 302
331 328 324 323 323 322 321 320 320 319 318 318 317 315 315 312 304 299 298 303 309 314 310 307 301 295 295 296 302 296 299 299 309 307 306 305 305 306 307 309 312 311 308
326 325 323 322 320 320 318 318 318 318 318 317 314 314 312 310 309 297 297 299 302 313 310 301 294 293 294 297 296 298 297 308 307 305 304 304 305 306 310 310 312 313 311
322 322 321 317 316 317 317 320 317 317 316 316 316 314 312 311 309 309 308 307 301 303 299 299 299 299 298 301 301 303 308 308 307 305 304 304 306 305 305 306 304 304 303
320 319 317 316 316 314 315 315 316 317 317 317 317 315 313 310 310 306 306 309 309 303 305 304 304 304 303 305 306 306 306 307 306 305 304 303 303 303 303 305 303 303 301
315 315 314 315 314 311 307 303 294 302 300 301 305 312 315 306 297 296 296 295 295 295 305 304 304 305 305 304 305 305 305 304 305 304 303 302 301 301 302 302 302 302 300
314 313 312 312 309 309 308 310 302 296 293 293 299 299 300 298 294 294 293 293 294 295 307 307 306 305 305 305 304 304 303 304 306 304 302 302 302 301 302 300 301 300 300
313 306 311 309 310 309 309 309 307 307 304 300 294 297 293 293 293 292 292 295 299 299 308 307 305 305 305 304 304 304 303 304 303 302 302 302 302 301 299 298 299 299 300
310 311 309 309 309 308 307 306 306 304 302 297 296 294 293 291 291 292 293 305 303 306 308 306 306 305 305 304 304 304 304 303 302 302 301 301 301 301 300 300 297 291 293
312 305 306 309 308 307 308 306 306 305 301 300 300 297 297 297 301 301 304 306 306 307 307 305 305 305 305 304 304 303 301 301 302 301 301 301 301 301 299 299 299 298 298
310 308 301 308 307 307 308 304 303 301 299 299 297 297 293 301 300 302 304 307 307 306 305 305 303 303 304 304 303 302 301 302 301 301 300 300 300 299 300 300 298 297 298
309 308 309 309 309 308 306 304 305 301 301 298 298 296 289 304 303 303 306 307 307 306 305 304 302 302 303 303 303 302 301 301 301 300 300 300 300 299 299 299 298 297 297
309 308 308 307 307 301 304 304 303 303 301 301 301 299 301 303 303 304 305 306 305 303 304 303 302 302 303 304 304 303 301 300 301 301 300 299 299 299 299 298 297 295 294
309 308 307 307 305 305 304 304 306 300 305 304 300 300 303 305 306 306 304 303 302 302 302 302 302 301 303 303 303 302 302 302 301 301 301 300 298 296 298 297 297 296 296
308 308 307 305 304 305 306 308 307 306 307 303 301 303 305 304 305 304 304 303 302 301 301 301 301 302 302 302 301 298 288 286 297 289 300 300 299 298 297 297 296 296 295
305 307 307 307 307 306 307 307 307 306 304 301 302 305 304 304 304 304 303 303 301 300 300 300 301 301 301 300 297 287 285 285 292 286 299 299 298 297 297 296 295 295 295
Wind_Speed
19 19 18 14 10 8 9 15 11 13 14 16 16 15 14 14 12 8 9 11 10 7 8 7 5 2 2 2 1 2 3 4 5 6 6 5 6 8 8 8 9 8 2
21 18 17 14 11 9 11 11 11 15 13 15 16 15 14 14 11 12 12 12 11 10 8 8 7 4 3 1 1 3 4 4 4 3 3 5 6 8 7 6 6 7 8
19 17 15 15 16 13 13 14 13 15 14 17 16 16 16 13 14 12 10 12 11 10 9 7 6 5 3 5 4 1 2 2 2 3 4 5 7 8 9 8 6 7 9
19 15 14 15 13 14 19 16 15 16 15 17 16 16 15 13 14 13 13 12 11 10 9 7 5 5 6 3 3 3 3 4 1 2 3 6 8 8 8 8 8 8 8
17 18 20 16 18 16 15 16 15 16 16 16 17 15 13 12 12 13 13 12 11 10 9 8 8 9 14 9 4 5 3 3 4 3 5 8 8 8 9 9 8 9 8
16 17 18 19 19 16 17 16 17 17 16 14 15 14 12 11 16 13 12 11 12 11 10 10 10 10 10 9 10 13 9 6 6 8 7 7 8 8 8 8 8 9 8
13 13 19 18 17 19 18 17 17 17 15 13 14 13 11 14 19 14 11 10 10 10 10 10 9 8 10 10 8 9 8 7 7 7 7 8 7 8 9 10 8 10 7
15 13 18 17 14 15 17 17 17 16 16 16 14 13 13 11 18 15 10 12 10 10 9 7 9 8 6 6 8 8 7 9 7 7 7 7 7 7 8 10 8 8 5
18 13 19 18 17 17 17 17 16 15 13 14 14 14 15 14 17 15 12 12 11 11 9 7 9 8 5 7 7 8 9 8 5 5 4 4 2 7 7 9 10 8 9
18 16 15 17 20 19 18 18 16 15 14 11 11 13 15 15 14 14 11 10 12 9 9 9 14 8 5 6 6 7 6 5 6 7 6 5 7 6 3 9 9 8 9
15 14 13 15 20 19 16 16 16 16 15 11 10 13 14 13 13 11 6 10 10 10 9 8 7 5 7 7 6 5 7 5 4 3 4 5 4 6 7 8 8 8 8
18 15 15 15 13 14 18 16 15 16 16 13 10 12 11 14 10 5 3 3 10 9 10 9 8 5 8 6 6 4 4 6 3 4 4 5 5 6 5 4 4 5 7
18 17 17 17 15 16 17 18 15 16 14 13 11 11 12 11 7 8 7 9 7 8 10 12 12 9 10 7 4 1 4 5 4 4 4 5 4 3 4 3 5 6 4
15 15 14 16 16 15 13 13 14 16 13 12 13 12 11 10 10 9 8 11 14 14 16 10 9 8 3 9 7 6 2 4 3 4 4 4 3 4 5 4 5 5 5
16 14 14 13 16 15 12 11 13 13 14 14 12 12 13 12 12 12 12 11 10 11 11 10 8 8 8 7 5 6 7 5 4 3 3 3 3 4 5 4 4 5 6
15 13 12 12 12 12 12 10 18 10 12 11 16 12 10 14 18 15 11 13 16 14 10 10 9 8 7 7 6 6 5 3 4 3 4 4 5 5 4 4 4 5 6
14 14 12 12 12 14 13 15 14 12 18 14 11 11 14 19 20 16 15 18 17 12 7 8 8 6 6 7 7 6 6 5 3 3 4 4 4 4 2 5 5 5 6
14 17 12 13 13 14 13 13 12 15 12 8 9 12 21 21 21 17 18 15 9 7 7 7 7 7 7 6 6 7 6 6 5 4 4 4 4 4 5 5 5 5 5
14 11 11 11 11 14 14 13 11 13 10 10 9 9 14 18 18 18 18 12 11 9 8 8 7 7 7 7 7 6 6 5 5 4 5 4 3 4 3 6 5 3 2
13 17 14 12 12 13 14 15 13 12 12 10 9 12 11 11 12 12 12 10 9 8 8 8 8 8 7 7 7 6 6 6 6 5 5 5 3 4 4 4 4 5 5
10 11 12 11 12 13 14 15 14 13 12 11 10 11 13 13 12 13 11 10 7 7 9 7 8 8 8 8 8 8 8 6 5 5 5 5 4 5 4 3 4 5 4
12 11 9 11 12 13 13 13 15 14 14 13 12 13 12 12 11 10 8 7 8 8 6 7 8 8 8 8 8 7 7 7 6 6 6 6 5 4 4 4 4 4 4
12 12 11 10 10 12 12 12 13 13 14 13 14 14 11 11 10 9 8 8 6 6 6 7 8 8 7 7 7 7 8 7 6 6 6 6 5 4 3 3 4 5 5
11 12 12 12 12 11 13 11 12 13 14 15 14 13 11 12 11 10 8 8 7 7 8 8 8 10 8 8 7 5 7 6 5 6 7 6 6 3 4 4 4 4 5
8 10 12 13 13 12 14 11 13 16 14 14 13 13 11 11 11 10 9 8 9 9 10 9 7 11 11 10 9 14 9 8 5 2 5 6 6 4 4 4 4 4 4
8 9 10 10 10 11 11 14 15 13 12 13 13 11 12 12 11 11 10 11 10 10 11 8 10 13 13 9 15 9 8 7 6 6 2 7 6 5 4 5 3 4 4
Wind_Direction
207 198 191 187 175 170 202 208 181 144 151 159 162 161 152 152 160 150 149 147 158 144 132 129 108 169 96 95 12 5 30 7 328 21 43 70 22 24 1 349 350 359 43
210 196 192 169 168 165 209 201 148 158 156 164 161 157 153 156 155 160 158 155 156 150 140 137 137 137 135 87 128 356 45 66 344 334 49 27 35 33 358 348 347 358 13
205 205 197 172 168 188 201 173 159 161 168 158 159 156 159 156 158 161 157 160 155 145 142 144 140 146 105 77 355 342 100 75 27 346 9 46 23 27 357 354 11 358 19
193 196 209 181 176 200 184 165 162 170 168 157 160 158 161 155 159 164 157 155 143 140 135 136 142 135 122 142 116 140 84 284 136 324 23 40 27 16 11 355 4 357 36
193 193 206 195 186 182 155 157 159 172 166 159 156 154 152 158 164 161 149 152 144 138 131 131 77 68 61 40 323 37 333 340 17 13 36 47 25 4 14 346 358 351 58
195 202 189 180 164 161 158 159 164 168 159 163 150 149 153 172 122 123 147 152 147 145 127 115 120 124 97 78 76 65 50 26 60 4 48 41 34 6 0 344 359 347 2
198 190 180 161 153 161 161 159 162 161 152 154 147 150 165 121 118 121 131 149 145 142 142 146 158 119 144 123 116 119 80 63 54 42 53 38 34 8 349 338 352 327 30
191 191 167 153 158 158 156 161 164 160 158 148 152 150 139 133 121 127 149 147 137 138 144 136 116 157 90 165 152 115 96 75 47 65 56 50 48 15 357 313 325 331 54
203 186 155 153 157 153 158 164 146 151 158 144 145 163 133 143 129 141 166 149 138 135 128 95 135 135 39 19 142 131 121 124 119 120 126 150 223 285 308 354 360 6 8
211 179 165 162 157 157 158 155 141 150 134 136 137 137 123 148 142 167 166 142 145 135 122 90 55 105 59 2 189 155 131 115 111 155 178 225 232 165 311 36 2 16 12
209 159 161 159 155 149 153 137 145 144 127 125 136 118 139 157 164 193 210 153 150 150 134 141 112 72 74 29 9 127 99 123 173 215 98 76 48 65 53 48 15 41 17
155 158 151 156 154 143 143 141 145 135 132 129 135 129 148 164 163 177 304 225 161 150 142 121 123 116 87 33 86 66 21 315 205 103 83 61 53 33 59 68 93 49 76
154 159 154 150 143 149 139 141 139 141 143 143 139 149 150 162 150 103 102 96 34 143 123 118 129 140 128 108 108 290 273 232 105 98 83 75 77 77 353 65 95 152 134
144 150 145 136 141 141 140 148 144 141 147 148 152 152 148 148 161 161 140 108 100 100 114 131 152 147 89 116 177 201 143 59 55 84 82 77 89 77 59 20 43 33 35
142 145 148 152 147 143 141 149 148 154 151 158 152 148 153 160 168 165 160 159 144 143 143 148 166 158 171 171 151 133 143 164 119 99 87 88 66 85 71 54 36 43 49
144 145 150 152 145 134 130 104 47 100 110 117 125 146 156 151 142 149 143 124 128 156 160 162 176 168 165 154 150 134 114 131 119 114 90 68 61 39 53 58 58 49 52
143 145 142 150 146 145 146 140 125 75 75 68 143 156 128 139 136 136 136 133 150 174 178 166 170 172 161 153 153 150 130 106 112 89 87 80 94 102 68 54 43 47 60
144 152 150 143 157 147 148 147 146 138 135 109 44 119 122 129 134 139 141 133 160 225 187 168 171 159 160 157 148 135 138 164 143 132 107 99 84 76 83 58 49 25 59
141 145 145 148 151 148 140 138 136 135 135 118 120 75 114 116 132 147 156 159 171 187 183 173 160 160 161 157 147 145 163 135 141 137 117 108 103 103 73 112 111 48 341
151 147 143 151 150 149 146 143 144 146 138 136 143 134 136 131 153 161 179 169 184 182 171 169 161 162 159 154 146 149 124 162 160 144 124 113 101 95 103 85 51 76 59
140 142 141 147 154 154 154 152 144 145 144 144 140 142 154 151 152 169 180 183 174 174 172 156 160 159 166 158 160 162 172 159 152 138 136 118 127 118 104 91 99 80 32
138 127 149 157 162 161 160 144 146 145 141 138 141 149 162 148 153 167 184 167 168 173 156 160 163 168 167 166 163 161 158 159 154 143 136 134 129 122 128 123 100 67 61
126 147 147 144 147 140 141 138 136 145 138 141 143 153 166 145 153 169 160 167 148 142 154 175 163 172 158 151 160 171 160 152 151 150 142 135 134 128 133 114 102 83 73
142 146 147 146 140 140 128 141 150 145 151 144 147 153 162 150 158 148 146 154 149 158 166 164 173 156 148 159 166 166 129 126 145 147 143 116 105 178 125 123 96 99 121
133 139 143 141 141 143 144 154 148 154 152 140 152 155 153 145 152 153 157 151 155 164 163 162 151 149 163 170 155 95 79 48 75 23 137 130 117 144 135 128 114 89 68
102 119 129 135 131 145 141 150 149 147 138 144 150 149 145 154 158 159 158 161 162 161 156 153 151 160 167 156 97 90 77 52 71 24 115 131 152 147 135 114 125 105 90